Find Starlink 31407

NORAD ID: 59250 Int'l Des: 2024-049 Owner: SPXS Country: US Constellation: starlink operational
LEOCIRCULAR

リアルタイム位置

3D地球を読み込み中...

Starlink 31407について

説明を読み込み中...

次回通過

Passes for default location (London). Set your location on the main map for personalized predictions.

高度履歴

Loading altitude history...

軌道要素

1 59250U 24049V 26132.42686414 -.00004015 00000-0 -13642-3 0 9990
2 59250 43.0005 132.3510 0001314 275.5686 84.5016 15.27587153122270
Epoch: May 12, 2026 • Age: 18 hours

現在のステータス

高度 494.3 km
速度 7.62 km/s
衛星直下点 -40.06°S, 71.87°E
打ち上げ日 Mar 16, 2024
運用期間 2.1 years
タイプ internet

技術仕様

分類 Payload
質量 730.00 kg
乾燥質量 700.00 kg
総質量 730.00 kg
長さ 0.30 m
直径 4.10 m
スパン 29.00 m
形状 Box + pan
製造者 SPXS
バスタイプ Starlink V2M
フェーズステータス In Orbit
所有者/国 SPXS/US

Most Searched